When you browse on this site, cookies collect data to enhance your experience and personalize the content and advertising you see.
Visit our Privacy Policy to learn more. By continuing to use the site, you agree to this use of cookies and data.

Météo par heure à Preston

Ce jour, 11 Août, Mardi

Heure Température Précipitation Vent Pression Humidité
00:00 +19°C° 0 mm 3 m/s 760 mmHg 94%
01:00 +19°C° 1.8 mm 3 m/s 760 mmHg 94%
02:00 +19°C° 1.8 mm 3 m/s 759 mmHg 94%
03:00 +19°C° 1.8 mm 3 m/s 759 mmHg 94%
04:00 +19°C° 1 mm 3 m/s 759 mmHg 94%
05:00 +19°C° 1 mm 3 m/s 759 mmHg 93%
06:00 +19°C° 1 mm 2 m/s 759 mmHg 93%
07:00 +20°C° 0.3 mm 2 m/s 759 mmHg 90%
08:00 +21°C° 0.3 mm 3 m/s 759 mmHg 88%
09:00 +22°C° 0.3 mm 3 m/s 759 mmHg 85%
10:00 +24°C° 0.1 mm 3 m/s 760 mmHg 81%
11:00 +26°C° 0.1 mm 3 m/s 760 mmHg 77%
12:00 +27°C° 0.1 mm 3 m/s 760 mmHg 73%
13:00 +28°C° 0.2 mm 2 m/s 759 mmHg 70%
14:00 +29°C° 0.2 mm 2 m/s 759 mmHg 67%
15:00 +30°C° 0.2 mm 2 m/s 758 mmHg 65%
16:00 +29°C° 0.7 mm 2 m/s 758 mmHg 69%
17:00 +28°C° 0.7 mm 2 m/s 758 mmHg 74%
18:00 +27°C° 0.7 mm 2 m/s 758 mmHg 79%
19:00 +25°C° 1 mm 2 m/s 758 mmHg 82%
20:00 +24°C° 1 mm 2 m/s 758 mmHg 85%
21:00 +23°C° 1 mm 2 m/s 758 mmHg 88%
22:00 +22°C° 0.6 mm 1 m/s 758 mmHg 88%
23:00 +22°C° 0.6 mm 1 m/s 758 mmHg 88%

Demain, 12 Août, Mercredi

Heure Température Précipitation Vent Pression Humidité
00:00 +22°C° 0.6 mm 1 m/s 758 mmHg 89%
01:00 +21°C° 0.6 mm 1 m/s 758 mmHg 89%
02:00 +21°C° 0.6 mm 1 m/s 758 mmHg 90%
03:00 +21°C° 0.6 mm 1 m/s 758 mmHg 90%
04:00 +21°C° 0.6 mm 1 m/s 758 mmHg 90%
05:00 +21°C° 0.6 mm 1 m/s 758 mmHg 90%
06:00 +21°C° 0.6 mm 1 m/s 758 mmHg 90%
07:00 +22°C° 0.1 mm 1 m/s 758 mmHg 87%
08:00 +22°C° 0.1 mm 0 m/s 758 mmHg 83%
09:00 +23°C° 0.1 mm 0 m/s 758 mmHg 80%
10:00 +26°C° 0 mm 1 m/s 758 mmHg 77%
11:00 +27°C° 0 mm 1 m/s 758 mmHg 74%
12:00 +27°C° 0 mm 2 m/s 758 mmHg 71%
13:00 +27°C° 0 mm 2 m/s 757 mmHg 72%
14:00 +27°C° 0 mm 2 m/s 757 mmHg 73%
15:00 +27°C° 0 mm 2 m/s 757 mmHg 74%
16:00 +27°C° 0.4 mm 2 m/s 757 mmHg 78%
17:00 +26°C° 0.4 mm 2 m/s 757 mmHg 81%
18:00 +25°C° 0.4 mm 2 m/s 757 mmHg 84%
19:00 +24°C° 1.1 mm 2 m/s 757 mmHg 87%
20:00 +23°C° 1.1 mm 2 m/s 757 mmHg 90%
21:00 +21°C° 1.1 mm 2 m/s 757 mmHg 92%
22:00 +21°C° 0.9 mm 2 m/s 757 mmHg 93%
23:00 +21°C° 0.9 mm 2 m/s 757 mmHg 94%

Après-demain, 13 Août, Jeudi

Heure Température Précipitation Vent Pression Humidité
00:00 +20°C° 0.9 mm 2 m/s 757 mmHg 95%
01:00 +20°C° 0 mm 2 m/s 757 mmHg 94%
02:00 +20°C° 0 mm 2 m/s 757 mmHg 93%
03:00 +21°C° 0 mm 2 m/s 757 mmHg 92%
04:00 +20°C° 0.1 mm 2 m/s 757 mmHg 92%
05:00 +20°C° 0.1 mm 2 m/s 757 mmHg 92%
06:00 +20°C° 0.1 mm 3 m/s 757 mmHg 91%
07:00 +21°C° 0 mm 3 m/s 757 mmHg 89%
08:00 +22°C° 0 mm 3 m/s 757 mmHg 86%
09:00 +22°C° 0 mm 3 m/s 757 mmHg 84%
10:00 +22°C° 0.3 mm 3 m/s 757 mmHg 84%
11:00 +22°C° 0.3 mm 4 m/s 757 mmHg 85%
12:00 +22°C° 0.3 mm 4 m/s 757 mmHg 85%
13:00 +22°C° 0.2 mm 4 m/s 757 mmHg 85%
14:00 +22°C° 0.2 mm 3 m/s 757 mmHg 86%
15:00 +22°C° 0.2 mm 3 m/s 757 mmHg 86%
16:00 +22°C° 0.1 mm 3 m/s 756 mmHg 85%
17:00 +22°C° 0.1 mm 3 m/s 756 mmHg 85%
18:00 +22°C° 0.1 mm 4 m/s 756 mmHg 84%
19:00 +21°C° 0 mm 4 m/s 756 mmHg 85%
20:00 +20°C° 0 mm 3 m/s 756 mmHg 87%
21:00 +19°C° 0 mm 3 m/s 757 mmHg 88%
22:00 +19°C° 0 mm 3 m/s 757 mmHg 87%
23:00 +19°C° 0 mm 3 m/s 757 mmHg 87%

14 Août, Vendredi

Heure Température Précipitation Vent Pression Humidité
00:00 +19°C° 0 mm 3 m/s 756 mmHg 87%
01:00 +19°C° 0 mm 3 m/s 756 mmHg 87%
02:00 +19°C° 0 mm 3 m/s 756 mmHg 87%
03:00 +19°C° 0 mm 3 m/s 756 mmHg 88%
04:00 +19°C° 0 mm 3 m/s 756 mmHg 88%
05:00 +19°C° 0 mm 2 m/s 756 mmHg 88%
06:00 +19°C° 0 mm 2 m/s 756 mmHg 89%
07:00 +20°C° 0.1 mm 2 m/s 756 mmHg 88%
08:00 +20°C° 0.1 mm 2 m/s 756 mmHg 88%
09:00 +20°C° 0.1 mm 2 m/s 757 mmHg 88%
10:00 +20°C° 0.1 mm 2 m/s 757 mmHg 87%
11:00 +21°C° 0.1 mm 2 m/s 757 mmHg 87%
12:00 +21°C° 0.1 mm 2 m/s 757 mmHg 87%
13:00 +21°C° 0 mm 2 m/s 757 mmHg 86%
14:00 +21°C° 0 mm 2 m/s 757 mmHg 85%
15:00 +23°C° 0 mm 2 m/s 757 mmHg 84%
16:00 +23°C° 0 mm 2 m/s 757 mmHg 85%
17:00 +21°C° 0 mm 2 m/s 757 mmHg 86%
18:00 +21°C° 0 mm 2 m/s 757 mmHg 88%
19:00 +20°C° 0 mm 2 m/s 758 mmHg 88%
20:00 +20°C° 0 mm 2 m/s 758 mmHg 88%
21:00 +19°C° 0 mm 2 m/s 758 mmHg 88%
22:00 +19°C° 0 mm 2 m/s 758 mmHg 88%
23:00 +19°C° 0 mm 2 m/s 758 mmHg 87%

15 Août, Samedi

Heure Température Précipitation Vent Pression Humidité
00:00 +19°C° 0 mm 2 m/s 758 mmHg 86%
01:00 +18°C° 0 mm 2 m/s 758 mmHg 87%
02:00 +18°C° 0 mm 2 m/s 758 mmHg 87%
03:00 +18°C° 0 mm 2 m/s 758 mmHg 87%
04:00 +18°C° 0.1 mm 2 m/s 758 mmHg 88%
05:00 +18°C° 0.1 mm 2 m/s 758 mmHg 88%
06:00 +17°C° 0.1 mm 2 m/s 758 mmHg 89%
07:00 +18°C° 0.1 mm 2 m/s 758 mmHg 88%
08:00 +19°C° 0.1 mm 2 m/s 759 mmHg 87%
09:00 +20°C° 0.1 mm 1 m/s 759 mmHg 86%
10:00 +20°C° 0.1 mm 1 m/s 759 mmHg 87%
11:00 +20°C° 0.1 mm 1 m/s 759 mmHg 87%
12:00 +21°C° 0.1 mm 1 m/s 759 mmHg 88%
13:00 +21°C° 0.1 mm 1 m/s 759 mmHg 86%
14:00 +22°C° 0.1 mm 1 m/s 759 mmHg 84%
15:00 +22°C° 0.1 mm 1 m/s 759 mmHg 82%
16:00 +22°C° 0.1 mm 1 m/s 759 mmHg 83%
17:00 +22°C° 0.1 mm 1 m/s 759 mmHg 83%
18:00 +22°C° 0.1 mm 1 m/s 759 mmHg 84%
19:00 +21°C° 0.1 mm 1 m/s 759 mmHg 86%
20:00 +21°C° 0.1 mm 1 m/s 759 mmHg 88%
21:00 +20°C° 0.1 mm 1 m/s 759 mmHg 91%
22:00 +20°C° 0 mm 1 m/s 759 mmHg 91%
23:00 +20°C° 0 mm 1 m/s 759 mmHg 90%

16 Août, Dimanche

Heure Température Précipitation Vent Pression Humidité
00:00 +20°C° 0 mm 1 m/s 759 mmHg 90%
01:00 +19°C° 0 mm 1 m/s 759 mmHg 90%
02:00 +19°C° 0 mm 1 m/s 759 mmHg 90%
03:00 +19°C° 0 mm 1 m/s 759 mmHg 91%
04:00 +19°C° 0 mm 1 m/s 759 mmHg 90%
05:00 +18°C° 0 mm 2 m/s 759 mmHg 90%
06:00 +18°C° 0 mm 2 m/s 759 mmHg 90%
07:00 +19°C° 0 mm 2 m/s 759 mmHg 88%
08:00 +20°C° 0 mm 2 m/s 759 mmHg 85%
09:00 +21°C° 0 mm 3 m/s 759 mmHg 82%
10:00 +22°C° 0 mm 3 m/s 759 mmHg 79%
11:00 +24°C° 0 mm 3 m/s 759 mmHg 75%
12:00 +25°C° 0 mm 3 m/s 759 mmHg 71%
13:00 +25°C° 0 mm 3 m/s 758 mmHg 70%
14:00 +25°C° 0 mm 3 m/s 758 mmHg 69%
15:00 +26°C° 0 mm 3 m/s 758 mmHg 67%
16:00 +25°C° 0.1 mm 3 m/s 757 mmHg 70%
17:00 +25°C° 0.1 mm 2 m/s 757 mmHg 73%
18:00 +24°C° 0.1 mm 2 m/s 757 mmHg 76%
19:00 +22°C° 0 mm 3 m/s 757 mmHg 79%
20:00 +21°C° 0 mm 3 m/s 757 mmHg 82%
21:00 +20°C° 0 mm 3 m/s 757 mmHg 85%
22:00 +19°C° 0.1 mm 3 m/s 757 mmHg 87%
23:00 +19°C° 0.1 mm 3 m/s 757 mmHg 88%
Voir plus